星链-34288 (STARLINK-34288)

导读 | 星芒AI

STARLINK-34288 是 SpaceX Starlink 卫星互联网项目中的一颗低轨卫星,属于第6批(v1.5)发射的卫星之一。该卫星于2022年5月4日由猎鹰9号火箭从佛罗里达州卡纳维拉尔角发射升空。它运行在约540公里的近地轨道,旨在为全球用户提供高速互联网服务。STARLINK-34288 采用先进推进系统和激光通信技术,提高网络效率与稳定性,是 SpaceX 构建全球宽带网络的重要组成部分。

基本信息
目录编号:
64673
目录名称:
STARLINK-34288
国际标识:
2025-139K
轨道中心:
EARTH
卫星名称:
星链-34288
卫星全名:
星链-34288 (STARLINK-34288)
卫星状态:
在轨 (已飞行134 天)
发射日期:
2025-06-28 UTC
国别 :
美国 (US)
星等 :
--
轨道信息
数据来源 国际轨道数据
星历时间: 2025-11-09T04:22:37+0800
15小时前
查看轨道信息
半长轴: 6853.268km
偏心率: 0.0001571
轨道倾角: 53.160°
近地点辐角 81.898°
升交点赤经 328.279°
平近点角 278.220°
近地点: 474.056km
远地点: 476.21km
周期: 94.104分钟
每日圈数: 15.302283
详细信息
固有亮度:
5
最大亮度:
2.5
卫星平台:
Starlink V1.0
覆盖范围:
全球
运营商:
太空探索技术公司
运营商所在国:
美国
制造商(研发单位):
太空探索技术公司
制造商所在国:
美国
使用方式:
暂无
卫星简介
Starlink 计划是 SpaceX 推出的全球卫星互联网项目,通过发射低轨道卫星,为全球尤其是偏远地区提供高速、低延迟的互联网服务。自 2019 年起,Starlink 已部署数千颗卫星,旨在缩小全球数字鸿沟,推动互联网普及。该项目还为军事、航空等行业提供通信支持,带来广泛经济效益。
2D轨道图
3D轨道图
轨道高度分析图
轨道倾角分析图
轨道综合分析图
查看轨道综合分析图